| time (UTC) | temp C | wind direction | speed KPH | gust KPH | rain 1hr cm | rain 24hr cm | rain mn cm | humidity % | barometer mb |
| 20260504214538 | 28 | 278 | 20.9 | 37.0 | 0.00 | 0.00 | 0.00 | 16 | 1003.9 |
| 20260504213050 | 28 | 264 | 20.9 | 38.6 | 0.00 | 0.00 | 0.00 | 17 | 1004.3 |
| 20260504211539 | 27 | 240 | 17.7 | 32.2 | 0.00 | 0.00 | 0.00 | 18 | 1004.4 |
| 20260504210030 | 27 | 283 | 16.1 | 35.4 | 0.00 | 0.00 | 0.00 | 20 | 1004.8 |
| 20260504204537 | 27 | 264 | 17.7 | 30.6 | 0.00 | 0.00 | 0.00 | 19 | 1005.0 |
| 20260504203025 | 27 | 205 | 16.1 | 30.6 | 0.00 | 0.00 | 0.00 | 20 | 1005.1 |
| 20260504201523 | 27 | 233 | 19.3 | 30.6 | 0.00 | 0.00 | 0.00 | 22 | 1005.1 |
| 20260504200021 | 26 | 275 | 17.7 | 38.6 | 0.00 | 0.00 | 0.00 | 20 | 1005.6 |
| 20260504194518 | 26 | 274 | 20.9 | 33.8 | 0.00 | 0.00 | 0.00 | 23 | 1006.0 |
| 20260504193015 | 26 | 257 | 19.3 | 35.4 | 0.00 | 0.00 | 0.00 | 26 | 1006.0 |
| 20260504191513 | 26 | 255 | 17.7 | 33.8 | 0.00 | 0.00 | 0.00 | 27 | 1006.4 |
| 20260504190013 | 26 | 244 | 17.7 | 30.6 | 0.00 | 0.00 | 0.00 | 27 | 1006.5 |
| 20260504184510 | 26 | 247 | 16.1 | 30.6 | 0.00 | 0.00 | 0.00 | 28 | 1006.5 |
| 20260504183010 | 26 | 249 | 12.9 | 24.1 | 0.00 | 0.00 | 0.00 | 27 | 1006.5 |
| 20260504181511 | 27 | 253 | 14.5 | 25.7 | 0.00 | 0.00 | 0.00 | 31 | 1006.7 |
| 20260504180006 | 26 | 257 | 12.9 | 24.1 | 0.00 | 0.00 | 0.00 | 30 | 1006.9 |
| 20260504174503 | 27 | 281 | 14.5 | 25.7 | 0.00 | 0.00 | 0.00 | 32 | 1007.1 |
| 20260504173000 | 27 | 283 | 11.3 | 22.5 | 0.00 | 0.00 | 0.00 | 33 | 1007.3 |
| 20260504171600 | 26 | 297 | 12.9 | 24.1 | 0.00 | 0.00 | 0.00 | 34 | 1007.5 |
| 20260504081535 | 15 | 230 | 6.4 | 16.1 | 0.00 | 0.00 | 0.00 | 70 | 1009.2 |
| 20260504050006 | 17 | 189 | 9.7 | 17.7 | 0.00 | 0.00 | 0.00 | 58 | 1011.2 |
| 20260504044506 | 17 | 195 | 9.7 | 19.3 | 0.00 | 0.00 | 0.00 | 57 | 1011.2 |
| 20260504043006 | 17 | 182 | 8.0 | 14.5 | 0.00 | 0.00 | 0.00 | 55 | 1011.3 |
| 20260504041505 | 17 | 180 | 9.7 | 19.3 | 0.00 | 0.00 | 0.00 | 54 | 1011.4 |
| 20260504040013 | 18 | 191 | 8.0 | 17.7 | 0.00 | 0.00 | 0.00 | 53 | 1011.5 |
| 20260504034503 | 18 | 196 | 8.0 | 16.1 | 0.00 | 0.00 | 0.00 | 52 | 1011.4 |
| 20260504033002 | 18 | 205 | 9.7 | 19.3 | 0.00 | 0.00 | 0.00 | 51 | 1011.2 |
| 20260504031502 | 18 | 181 | 8.0 | 17.7 | 0.00 | 0.00 | 0.00 | 50 | 1011.2 |
| 20260504030002 | 18 | 191 | 4.8 | 11.3 | 0.00 | 0.00 | 0.00 | 49 | 1011.1 |
| 20260504024500 | 19 | 191 | 3.2 | 8.0 | 0.00 | 0.00 | 0.00 | 47 | 1011.0 |
| 20260504023002 | 20 | 193 | 4.8 | 9.7 | 0.00 | 0.00 | 0.00 | 46 | 1011.0 |
| 20260504021603 | 20 | 192 | 6.4 | 12.9 | 0.00 | 0.00 | 0.00 | 44 | 1010.8 |
| 20260504020119 | 20 | 200 | 8.0 | 11.3 | 0.00 | 0.00 | 0.00 | 42 | 1010.8 |
| 20260504014605 | 21 | 212 | 4.8 | 12.9 | 0.00 | 0.00 | 0.00 | 40 | 1010.9 |
| 20260504013106 | 21 | 205 | 4.8 | 14.5 | 0.00 | 0.00 | 0.00 | 38 | 1010.8 |
| 20260504011600 | 22 | 219 | 8.0 | 17.7 | 0.00 | 0.00 | 0.00 | 37 | 1010.9 |
| 20260504010058 | 22 | 234 | 8.0 | 17.7 | 0.00 | 0.00 | 0.00 | 36 | 1010.8 |
| 20260504004559 | 22 | 238 | 8.0 | 16.1 | 0.00 | 0.00 | 0.00 | 36 | 1010.9 |
| 20260504003057 | 22 | 248 | 9.7 | 20.9 | 0.00 | 0.00 | 0.00 | 36 | 1011.1 |
| 20260504001556 | 23 | 228 | 14.5 | 25.7 | 0.00 | 0.00 | 0.00 | 34 | 1011.3 |
| 20260504000054 | 23 | 209 | 14.5 | 35.4 | 0.00 | 0.00 | 0.00 | 34 | 1011.4 |
| 20260503234550 | 23 | 236 | 11.3 | 20.9 | 0.00 | 0.00 | 0.00 | 35 | 1011.5 |
| 20260503233049 | 23 | 224 | 11.3 | 24.1 | 0.00 | 0.00 | 0.00 | 35 | 1011.8 |
| 20260503231547 | 23 | 212 | 11.3 | 29.0 | 0.00 | 0.00 | 0.00 | 34 | 1011.8 |
| 20260503230059 | 23 | 220 | 9.7 | 24.1 | 0.00 | 0.00 | 0.00 | 36 | 1011.9 |
| 20260503224542 | 23 | 229 | 12.9 | 27.4 | 0.00 | 0.00 | 0.00 | 36 | 1012.2 |
| 20260503223040 | 23 | 243 | 12.9 | 25.7 | 0.00 | 0.00 | 0.00 | 35 | 1012.4 |
| 20260503221538 | 23 | 238 | 14.5 | 25.7 | 0.00 | 0.00 | 0.00 | 35 | 1012.7 |
| 20260503220036 | 23 | 252 | 12.9 | 32.2 | 0.00 | 0.00 | 0.00 | 35 | 1012.8 |